STARLINK-11182, 60399

Orbit data source: Space-Track

STARLINK-11182, 60399 is a payload satellite owned by SpaceX/Seattle (US) in LEO that was launched on Sat, 10 Aug 2024 UTC via an FALCON 9 launch vehicle from the Air Force Eastern Test Range (AFETR). Payload-class satellites include a variety of spacecraft equipped with specific instruments for various scientific and technological missions. These include communications satellites like Starlink; space stations such as the ISS; scientific satellites like the Hubble; Earth observation satellites from companies like Planet Labs, Umbra, and HawkEye 360; GPS; miniature CubeSats for education and research; and military/defense satellites.

Loading next visibility...
Identifier
60399, 2024-141B
Orbit
LEO
Country
Flag of USUS
Related business
Manufacturer
SpaceX/Seattle
Mission
Operational Commercial Communications
Bus & Motor
STARLINK V2MD, Unknown motor
Mass
960 kg wet, ~910 kg dry
Launch date (UTC)
2024-08-10 (1 year ago)
Launch vehicle
FALCON 9
Launch site
Air Force Eastern Test Range (AFETR)
Object type
Payload
Rocket body
Debris
Shape & HBR
Box + 2 Pan, 14.5 m
Radar Cross Section
36.964 m², Large (>1 m²)

Expand to show TLE details & history
Last TLE update: 1 day ago

TLE from 1 day ago
0 STARLINK-11182
1 60399U 24141B   25260.05477460 -.00002278  00000-0 -13950-4 0  9990
2 60399  53.1599 222.0683 0001236  92.1634 267.9525 15.69709582 64470
Epoch: 2025-09-17T01:18Z
TLE epoch observation values (Epoch: 2025-09-17T01:18:52.525Z)
Latitude
-0.00006°
Longitude
-153.88682°
Altitude
360.673 km
Speed
7.694 km/s
True Right ascension
14h 48m 16s
True Declination
0° 00' 00"
Sunlit
Object was in daylight at epoch
Visualization orbit readout
Latitude
Unknown
Longitude
Unknown
Altitude
Unknown
Speed
Unknown
Apparent Right ascension
Unknown
Apparent Declination
Unknown
Sunlit
N/A
Visualization observer readout
Local Sidereal Time
22:02:03
Azimuth
Unknown
Elevation
Unknown
Doppler factor
Unknown
Orbital elements
Apogee altitude
360.821 km
Perigee altitude
359.156 km
Semi-major axis
6,738.126 km
Eccentricity
0.00012
Inclination
53.1599°
RAAN
222.0683°
Arg. of periapsis
92.1634°
True anomaly
267.93835°
Mean anomaly
267.9525°
Eccentric anomaly
267.94542°
Mean motion
3.92405 °/min
Orbital period
91.74 mins
BSTAR
-0.00001395
Loading maneuver chart data...
Computing Atmospheric mass density...
Loading historical data...
Loading historical data...
Loading historical data...
Loading historical data...
Loading historical data...
Loading historical data...
Loading historical data...

Documentation

Showing up to 5 results
|